KD3TB Weather Reports


Display with metric or nautical units.
time (UTC)temp
F
wind
direction
speed
MPH
gust
MPH
rain 1hr
in
rain 24hr
in
rain mn
in
humidity
%
barometer
mb
20190418124635 55 48 1.0 6.0 0.00 0.00 0.00 75 1015.6
20190418123149 55 93 1.0 7.0 0.00 0.00 0.00 74 1015.8
20190418121620 55 103 1.0 7.0 0.00 0.00 0.00 73 1015.7
20190418120111 54 66 0.0 8.0 0.00 0.00 0.00 73 1015.8
20190418114609 54 76 1.0 6.0 0.00 0.00 0.00 73 1015.7
20190418113227 53 82 1.0 5.0 0.00 0.00 0.00 72 1015.7
20190418111607 53 84 0.0 7.0 0.00 0.00 0.00 72 1015.4
20190418110049 53 86 0.0 6.0 0.00 0.00 0.00 71 1015.4
20190418104643 52 82 0.0 4.0 0.00 0.00 0.00 70 1015.3
20190418103123 52 55 0.0 3.0 0.00 0.00 0.00 70 1015.3
20190418101608 52 52 0.0 3.0 0.00 0.00 0.00 69 1015.5
20190418100051 52 46 0.0 7.0 0.00 0.00 0.00 69 1015.8
20190418094536 52 67 0.0 3.0 0.00 0.00 0.00 69 1015.8
20190418093102 51 69 0.0 2.0 0.00 0.00 0.00 69 1016.1
20190418091557 51 62 0.0 3.0 0.00 0.00 0.00 69 1016.2
20190418090102 51 62 0.0 2.0 0.00 0.00 0.00 69 1016.4
20190418084615 51 62 0.0 3.0 0.00 0.00 0.00 71 1016.4
20190418083112 50 86 0.0 5.0 0.00 0.00 0.00 73 1016.7
20190418081534 49 86 0.0 0.0 0.00 0.00 0.00 74 1017.0
20190418080050 49 86 0.0 0.0 0.00 0.00 0.00 75 1017.2
20190418074548 49 86 0.0 0.0 0.00 0.00 0.00 75 1017.3
20190418073038 49 86 0.0 1.0 0.00 0.00 0.00 74 1017.2
20190418071604 49 86 0.0 0.0 0.00 0.00 0.00 73 1017.4
20190418070104 49 86 0.0 0.0 0.00 0.00 0.00 72 1017.6
20190418064609 49 86 0.0 0.0 0.00 0.00 0.00 72 1017.7
20190418063032 48 86 0.0 0.0 0.00 0.00 0.00 72 1018.1
20190418061608 48 86 0.0 0.0 0.00 0.00 0.00 71 1018.3
20190418060031 48 86 0.0 0.0 0.00 0.00 0.00 68 1018.2
20190418054536 49 86 0.0 0.0 0.00 0.00 0.00 67 1018.4
20190418053031 49 86 0.0 1.0 0.00 0.00 0.00 64 1018.5
20190418051521 49 86 0.0 0.0 0.00 0.00 0.00 63 1018.6
20190418050020 50 86 0.0 3.0 0.00 0.00 0.00 61 1018.8
20190418044514 50 88 0.0 0.0 0.00 0.00 0.00 59 1019.1
20190418043037 50 88 0.0 1.0 0.00 0.00 0.00 58 1019.3
20190418041509 50 88 0.0 2.0 0.00 0.00 0.00 57 1019.2
20190418040016 50 88 0.0 1.0 0.00 0.00 0.00 56 1019.4
20190418034537 51 88 1.0 5.0 0.00 0.00 0.00 55 1019.4
20190418033057 51 84 0.0 1.0 0.00 0.00 0.00 52 1019.3
20190418031506 51 84 2.0 5.0 0.00 0.00 0.00 50 1019.1
20190418030016 51 70 0.0 1.0 0.00 0.00 0.00 48 1018.9
20190418024506 51 71 0.0 3.0 0.00 0.00 0.00 47 1018.7
20190418023006 51 71 0.0 4.0 0.00 0.00 0.00 45 1018.6
20190418021506 51 59 0.0 4.0 0.00 0.00 0.00 43 1018.7
20190418020027 51 104 0.0 7.0 0.00 0.00 0.00 41 1018.7
20190418014502 51 98 1.0 5.0 0.00 0.00 0.00 39 1018.7
20190418013003 52 103 0.0 0.0 0.00 0.00 0.00 38 1018.9
20190418011508 52 103 0.0 4.0 0.00 0.00 0.00 36 1018.6
20190418010308 53 61 0.0 7.0 0.00 0.00 0.00 35 1018.5
20190418004710 53 103 0.0 5.0 0.00 0.00 0.00 34 1018.4
20190418003243 53 103 0.0 0.0 0.00 0.00 0.00 34 1018.4
20190418001654 54 103 0.0 3.0 0.00 0.00 0.00 32 1018.3
20190418000249 54 103 0.0 3.0 0.00 0.00 0.00 29 1017.9
20190417234736 55 97 0.0 3.0 0.00 0.00 0.00 30 1017.7
20190417233220 55 118 0.0 6.0 0.00 0.00 0.00 29 1017.8
20190417231706 56 67 0.0 4.0 0.00 0.00 0.00 32 1017.8
20190417230126 56 111 0.0 3.0 0.00 0.00 0.00 33 1017.9
20190417224747 56 173 0.0 7.0 0.00 0.00 0.00 32 1017.5
20190417223138 57 119 0.0 5.0 0.00 0.00 0.00 33 1017.5
20190417221634 58 117 0.0 7.0 0.00 0.00 0.00 36 1017.4
20190417220137 58 107 1.0 10.0 0.00 0.00 0.00 36 1017.1
20190417214630 58 107 2.0 6.0 0.00 0.00 0.00 39 1017.3
20190417213137 59 96 0.0 6.0 0.00 0.00 0.00 38 1017.2
20190417211737 59 108 0.0 5.0 0.00 0.00 0.00 40 1016.9
20190417210123 59 104 0.0 4.0 0.00 0.00 0.00 40 1017.0
20190417204615 59 105 0.0 4.0 0.00 0.00 0.00 39 1016.9
20190417203151 59 85 0.0 2.0 0.00 0.00 0.00 39 1016.9
20190417201640 60 83 0.0 2.0 0.00 0.00 0.00 39 1016.9
20190417200127 60 69 0.0 4.0 0.00 0.00 0.00 40 1016.9
20190417194737 59 101 0.0 5.0 0.00 0.00 0.00 39 1016.9
20190417193203 59 98 0.0 5.0 0.00 0.00 0.00 39 1017.0
20190417191709 61 55 1.0 5.0 0.00 0.00 0.00 36 1017.3
20190417190130 61 97 0.0 5.0 0.00 0.00 0.00 36 1017.4
20190417184634 61 94 0.0 6.0 0.00 0.00 0.00 36 1017.5
20190417183116 61 28 0.0 7.0 0.00 0.00 0.00 36 1017.8
20190417181724 62 49 0.0 7.0 0.00 0.00 0.00 35 1017.8
20190417180133 62 20 0.0 5.0 0.00 0.00 0.00 35 1017.8
20190417174646 62 63 0.0 4.0 0.00 0.00 0.00 35 1017.8
20190417173059 61 79 0.0 7.0 0.00 0.00 0.00 35 1017.9
20190417171703 61 85 0.0 4.0 0.00 0.00 0.00 35 1017.9
20190417170212 61 42 1.0 8.0 0.00 0.00 0.00 35 1017.9
20190417164638 60 213 1.0 6.0 0.00 0.00 0.00 34 1017.9
20190417163117 59 59 0.0 9.0 0.00 0.00 0.00 37 1018.0
20190417161603 59 50 1.0 10.0 0.00 0.00 0.00 36 1018.1
20190417160115 59 49 3.0 10.0 0.00 0.00 0.00 38 1018.0
20190417154659 59 19 1.0 8.0 0.00 0.00 0.00 37 1017.9
20190417153129 59 16 2.0 7.0 0.00 0.00 0.00 38 1017.9
20190417151615 58 88 0.0 7.0 0.00 0.00 0.00 41 1017.9
20190417150141 58 196 0.0 7.0 0.00 0.00 0.00 41 1017.9
20190417144646 56 120 2.0 10.0 0.00 0.00 0.00 43 1017.7
20190417143040 56 19 2.0 8.0 0.00 0.00 0.00 45 1017.8
20190417141539 55 29 1.0 9.0 0.00 0.00 0.00 47 1017.6
20190417140049 54 47 1.0 10.0 0.00 0.00 0.00 50 1017.5
20190417134549 54 37 1.0 5.0 0.00 0.00 0.00 53 1017.4
20190417133038 53 77 2.0 6.0 0.00 0.00 0.00 59 1017.4
20190417131532 52 61 0.0 7.0 0.00 0.00 0.00 59 1017.9
20190417130030 53 63 1.0 8.0 0.00 0.00 0.00 58 1017.6